When you browse on this site, cookies collect data to enhance your experience and personalize the content and advertising you see.
Visit our Privacy Policy to learn more. By continuing to use the site, you agree to this use of cookies and data.
  • In Spain
  • List of Countries
  • For 7 days
  • Water Temperature
  • Satellite Maps
  • Weather Map
  • Weather Widgets
  • user-avatar
    Login

    Hourly Weather Grechishino

    Today, 25 May, Saturday

    Time Temperature Precipitation Wind Pressure Humidity
    00:00 +13°C° 0 mm 3 mps 738 mmHg 97%
    01:00 +13°C° 0 mm 3 mps 738 mmHg 97%
    02:00 +13°C° 0 mm 3 mps 738 mmHg 98%
    03:00 +13°C° 0 mm 3 mps 738 mmHg 97%
    04:00 +13°C° 0 mm 3 mps 738 mmHg 96%
    05:00 +14°C° 0 mm 3 mps 738 mmHg 96%
    06:00 +14°C° 0 mm 3 mps 737 mmHg 95%
    07:00 +14°C° 0 mm 3 mps 737 mmHg 94%
    08:00 +14°C° 0 mm 3 mps 737 mmHg 93%
    09:00 +16°C° 0.4 mm 3 mps 737 mmHg 92%
    10:00 +17°C° 0.4 mm 3 mps 737 mmHg 90%
    11:00 +17°C° 0.4 mm 3 mps 737 mmHg 89%
    12:00 +18°C° 0.3 mm 3 mps 736 mmHg 86%
    13:00 +19°C° 0.3 mm 3 mps 736 mmHg 83%
    14:00 +20°C° 0.3 mm 3 mps 736 mmHg 80%
    15:00 +20°C° 0.1 mm 2 mps 736 mmHg 78%
    16:00 +21°C° 0.1 mm 2 mps 735 mmHg 75%
    17:00 +21°C° 0.1 mm 2 mps 735 mmHg 72%
    18:00 +19°C° 1.3 mm 2 mps 735 mmHg 78%
    19:00 +18°C° 1.3 mm 2 mps 735 mmHg 84%
    20:00 +16°C° 1.3 mm 2 mps 735 mmHg 90%
    21:00 +15°C° 0 mm 2 mps 735 mmHg 91%
    22:00 +15°C° 0 mm 2 mps 735 mmHg 93%
    23:00 +14°C° 0 mm 2 mps 735 mmHg 94%

    Tomorrow, 26 May, Sunday

    Time Temperature Precipitation Wind Pressure Humidity
    00:00 +13°C° 0 mm 2 mps 735 mmHg 94%
    01:00 +12°C° 0 mm 2 mps 735 mmHg 95%
    02:00 +12°C° 0 mm 2 mps 736 mmHg 95%
    03:00 +12°C° 0 mm 2 mps 736 mmHg 95%
    04:00 +12°C° 0 mm 2 mps 736 mmHg 95%
    05:00 +11°C° 0 mm 3 mps 736 mmHg 95%
    06:00 +12°C° 0 mm 3 mps 736 mmHg 90%
    07:00 +13°C° 0 mm 3 mps 736 mmHg 84%
    08:00 +14°C° 0 mm 4 mps 736 mmHg 79%
    09:00 +15°C° 0 mm 4 mps 736 mmHg 73%
    10:00 +17°C° 0 mm 4 mps 737 mmHg 67%
    11:00 +18°C° 0 mm 4 mps 737 mmHg 62%
    12:00 +19°C° 0 mm 4 mps 736 mmHg 60%
    13:00 +19°C° 0 mm 4 mps 736 mmHg 59%
    14:00 +19°C° 0 mm 4 mps 736 mmHg 58%
    15:00 +19°C° 0 mm 4 mps 736 mmHg 60%
    16:00 +19°C° 0 mm 4 mps 736 mmHg 62%
    17:00 +18°C° 0 mm 4 mps 736 mmHg 64%
    18:00 +17°C° 0 mm 4 mps 736 mmHg 69%
    19:00 +14°C° 0 mm 3 mps 736 mmHg 74%
    20:00 +13°C° 0 mm 3 mps 736 mmHg 79%
    21:00 +12°C° 0 mm 3 mps 737 mmHg 82%
    22:00 +11°C° 0 mm 3 mps 737 mmHg 85%
    23:00 +11°C° 0 mm 3 mps 737 mmHg 88%

    Day after tomorrow, 27 May, Monday

    Time Temperature Precipitation Wind Pressure Humidity
    00:00 +10°C° 0 mm 3 mps 737 mmHg 89%
    01:00 +10°C° 0 mm 3 mps 737 mmHg 91%
    02:00 +10°C° 0 mm 2 mps 737 mmHg 92%
    03:00 +10°C° 0 mm 3 mps 738 mmHg 91%
    04:00 +10°C° 0 mm 3 mps 738 mmHg 90%
    05:00 +11°C° 0 mm 3 mps 738 mmHg 88%
    06:00 +12°C° 0 mm 4 mps 738 mmHg 83%
    07:00 +14°C° 0 mm 5 mps 739 mmHg 77%
    08:00 +15°C° 0 mm 5 mps 739 mmHg 71%
    09:00 +15°C° 0 mm 5 mps 739 mmHg 71%
    10:00 +15°C° 0 mm 5 mps 739 mmHg 72%
    11:00 +16°C° 0 mm 6 mps 739 mmHg 72%
    12:00 +16°C° 0.1 mm 6 mps 739 mmHg 72%
    13:00 +17°C° 0.1 mm 6 mps 739 mmHg 71%
    14:00 +19°C° 0.1 mm 6 mps 740 mmHg 70%
    15:00 +19°C° 0.3 mm 5 mps 739 mmHg 72%
    16:00 +20°C° 0.3 mm 4 mps 739 mmHg 75%
    17:00 +20°C° 0.3 mm 4 mps 739 mmHg 77%
    18:00 +19°C° 0.4 mm 3 mps 740 mmHg 81%
    19:00 +18°C° 0.4 mm 3 mps 740 mmHg 85%
    20:00 +16°C° 0.4 mm 3 mps 740 mmHg 89%
    21:00 +16°C° 0 mm 3 mps 740 mmHg 90%
    22:00 +14°C° 0 mm 3 mps 740 mmHg 92%
    23:00 +14°C° 0 mm 3 mps 740 mmHg 93%

    28 May, Tuesday

    Time Temperature Precipitation Wind Pressure Humidity
    00:00 +13°C° 0 mm 3 mps 740 mmHg 94%
    01:00 +13°C° 0 mm 3 mps 740 mmHg 94%
    02:00 +13°C° 0 mm 3 mps 740 mmHg 94%
    03:00 +13°C° 0 mm 3 mps 740 mmHg 95%
    04:00 +14°C° 0 mm 3 mps 740 mmHg 95%
    05:00 +14°C° 0 mm 3 mps 740 mmHg 95%
    06:00 +17°C° 0 mm 3 mps 740 mmHg 91%
    07:00 +19°C° 0 mm 4 mps 740 mmHg 86%
    08:00 +20°C° 0 mm 4 mps 741 mmHg 82%
    09:00 +21°C° 0.6 mm 4 mps 741 mmHg 77%
    10:00 +23°C° 0.6 mm 5 mps 741 mmHg 71%
    11:00 +25°C° 0.6 mm 5 mps 741 mmHg 66%
    12:00 +25°C° 0.5 mm 5 mps 740 mmHg 69%
    13:00 +25°C° 0.5 mm 5 mps 740 mmHg 71%
    14:00 +25°C° 0.5 mm 5 mps 740 mmHg 73%
    15:00 +23°C° 1.2 mm 4 mps 740 mmHg 78%
    16:00 +22°C° 1.2 mm 4 mps 740 mmHg 83%
    17:00 +21°C° 1.2 mm 4 mps 740 mmHg 88%
    18:00 +20°C° 0.4 mm 4 mps 740 mmHg 89%
    19:00 +20°C° 0.4 mm 4 mps 740 mmHg 89%
    20:00 +20°C° 0.4 mm 4 mps 740 mmHg 89%
    21:00 +19°C° 0 mm 4 mps 740 mmHg 90%
    22:00 +18°C° 0 mm 4 mps 740 mmHg 91%
    23:00 +17°C° 0 mm 4 mps 740 mmHg 91%

    29 May, Wednesday

    Time Temperature Precipitation Wind Pressure Humidity
    00:00 +17°C° 0 mm 4 mps 740 mmHg 92%
    01:00 +17°C° 0 mm 4 mps 740 mmHg 92%
    02:00 +17°C° 0 mm 4 mps 740 mmHg 92%
    03:00 +17°C° 0 mm 4 mps 740 mmHg 93%
    04:00 +17°C° 0 mm 4 mps 740 mmHg 94%
    05:00 +17°C° 0 mm 5 mps 739 mmHg 94%
    06:00 +19°C° 0 mm 5 mps 739 mmHg 86%
    07:00 +20°C° 0 mm 6 mps 739 mmHg 79%
    08:00 +21°C° 0 mm 7 mps 739 mmHg 71%
    09:00 +22°C° 0 mm 7 mps 739 mmHg 69%
    10:00 +23°C° 0 mm 7 mps 739 mmHg 68%
    11:00 +24°C° 0 mm 7 mps 739 mmHg 66%
    12:00 +24°C° 0 mm 7 mps 739 mmHg 67%
    13:00 +24°C° 0 mm 7 mps 739 mmHg 68%
    14:00 +26°C° 0 mm 6 mps 739 mmHg 68%
    15:00 +24°C° 1 mm 6 mps 739 mmHg 72%
    16:00 +24°C° 1 mm 6 mps 739 mmHg 77%
    17:00 +23°C° 1 mm 5 mps 739 mmHg 81%
    18:00 +22°C° 2.2 mm 5 mps 740 mmHg 84%
    19:00 +21°C° 2.2 mm 4 mps 740 mmHg 86%
    20:00 +19°C° 2.2 mm 3 mps 740 mmHg 89%
    21:00 +19°C° 0.2 mm 3 mps 740 mmHg 91%
    22:00 +18°C° 0.2 mm 2 mps 741 mmHg 93%
    23:00 +18°C° 0.2 mm 2 mps 741 mmHg 95%

    30 May, Thursday

    Time Temperature Precipitation Wind Pressure Humidity
    00:00 +17°C° 1.6 mm 2 mps 741 mmHg 96%
    01:00 +17°C° 1.6 mm 3 mps 742 mmHg 96%
    02:00 +16°C° 1.6 mm 3 mps 742 mmHg 97%
    03:00 +14°C° 0.6 mm 3 mps 742 mmHg 96%
    04:00 +14°C° 0.6 mm 4 mps 743 mmHg 96%
    05:00 +13°C° 0.6 mm 4 mps 744 mmHg 95%
    06:00 +14°C° 0 mm 4 mps 744 mmHg 91%
    07:00 +14°C° 0 mm 4 mps 745 mmHg 88%
    08:00 +14°C° 0 mm 4 mps 745 mmHg 84%
    09:00 +17°C° 0 mm 4 mps 745 mmHg 75%
    10:00 +18°C° 0 mm 4 mps 746 mmHg 67%
    11:00 +19°C° 0 mm 3 mps 746 mmHg 58%
    12:00 +19°C° 0 mm 3 mps 746 mmHg 55%
    13:00 +20°C° 0 mm 3 mps 746 mmHg 51%
    14:00 +20°C° 0 mm 3 mps 746 mmHg 48%
    15:00 +20°C° 0 mm 3 mps 746 mmHg 49%
    16:00 +20°C° 0 mm 3 mps 746 mmHg 51%
    17:00 +20°C° 0 mm 2 mps 746 mmHg 52%
    18:00 +18°C° 0 mm 2 mps 746 mmHg 57%
    19:00 +16°C° 0 mm 2 mps 746 mmHg 62%
    20:00 +14°C° 0 mm 2 mps 746 mmHg 67%
    21:00 +13°C° 0 mm 2 mps 746 mmHg 67%
    22:00 +12°C° 0 mm 2 mps 746 mmHg 66%
    23:00 +10°C° 0 mm 2 mps 746 mmHg 66%
    Show more